This demonstration page uses our WeatherBlox Daily Observations layout. Learn more.

Left ArrowRight Arrow

Hourly Observations for March 13, 2020

Temp ( °F °C ) Dew Point ( °F °C ) Humidity (%) Winds ( mph kmh ) Pressure ( in mb ) Visibility ( mi km ) Precip ( " mm )
12:24 am 00:24 Cloudy with Light Rain 61 16.1 59 15 93 93 WSW 9 15 29.67 1005 9 14.48406 0.001 0.001
12:53 am 00:53 Cloudy 61 16.1 59 15 93 93 W 10 17 29.69 1005 10 16.0934 0.001 0.001
1:53 am 01:53 Cloudy 61 16.1 56 13.3 84 84 W 13 20 29.72 1007 10 16.0934 N/A
2:53 am 02:53 Mostly Cloudy 58 14.4 52 11.1 81 81 WNW 17 28 29.77 1008 10 16.0934 N/A
3:04 am 03:04 Mostly Cloudy 57 13.9 52 11.1 83 83 WNW 13 20 29.78 1008 10 16.0934 N/A
3:19 am 03:19 Mostly Cloudy 57 13.9 52 11.1 83 83 W 12 19 29.79 1009 10 16.0934 N/A
3:53 am 03:53 Cloudy 57 13.9 51 10.6 81 81 WNW 14 22 29.82 1010 10 16.0934 N/A
4:27 am 04:27 Cloudy 57 13.9 50 10 78 78 WNW 12 19 29.84 1010 10 16.0934 N/A
4:53 am 04:53 Cloudy 56 13.3 50 10 81 81 WNW 13 20 29.85 1011 10 16.0934 N/A
5:53 am 05:53 Partly Cloudy 50 10 42 5.6 74 74 NW 20 31 29.94 1014 10 16.0934 N/A
6:24 am 06:24 Mostly Cloudy 49 9.4 41 5 74 74 WNW 14 22 29.99 1016 10 16.0934 N/A
6:53 am 06:53 Mostly Cloudy 47 8.3 38 3.3 71 71 WNW 16 26 30.02 1017 10 16.0934 N/A
7:24 am 07:24 Partly Cloudy 45 7.2 36 2.2 71 71 WNW 13 20 30.07 1018 10 16.0934 N/A
7:53 am 07:53 Sunny 44 6.7 36 2.2 73 73 WNW 10 17 30.07 1018 10 16.0934 N/A
8:53 am 08:53 Sunny 44 6.7 35 1.7 71 71 WNW 16 26 30.12 1020 10 16.0934 N/A
9:53 am 09:53 Sunny 45 7.2 34 1.1 66 66 WNW 14 22 30.16 1021 10 16.0934 N/A
10:53 am 10:53 Sunny 47 8.3 32 undefined 56 56 WNW 16 26 30.19 1022 10 16.0934 N/A
11:53 am 11:53 Sunny 49 9.4 32 undefined 52 52 W 12 19 30.21 1023 10 16.0934 N/A
12:53 pm 12:53 Sunny 49 9.4 26 -3.3 41 41 W 12 19 30.24 1024 10 16.0934 N/A
1:53 pm 13:53 Sunny 50 10 28 -2.2 43 43 WNW 14 22 30.25 1024 10 16.0934 N/A
2:53 pm 14:53 Sunny 51 10.6 26 -3.3 38 38 WNW 17 28 30.27 1025 10 16.0934 N/A
3:53 pm 15:53 Sunny 51 10.6 24 -4.4 35 35 W 13 20 30.26 1025 10 16.0934 N/A
4:53 pm 16:53 Sunny 50 10 26 -3.3 39 39 NW 10 17 30.27 1025 10 16.0934 N/A
5:53 pm 17:53 Sunny 50 10 27 -2.8 41 41 NW 13 20 30.31 1027 10 16.0934 N/A
6:53 pm 18:53 Sunny 49 9.4 24 -4.4 38 38 NW 13 20 30.33 1027 10 16.0934 N/A
7:53 pm 19:53 Clear 47 8.3 25 -3.9 42 42 WNW 7 11 30.35 1028 10 16.0934 N/A
8:53 pm 20:53 Clear 43 6.1 29 -1.7 58 58 N N/A 30.37 1028 10 16.0934 N/A
9:53 pm 21:53 Clear 38 3.3 29 -1.7 70 70 N N/A 30.38 1029 10 16.0934 N/A
10:53 pm 22:53 Clear 37 2.8 31 -0.6 79 79 N N/A 30.4 1030 10 16.0934 N/A
11:53 pm 23:53 Clear 35 1.7 30 -1.1 82 82 N N/A 30.42 1030 10 16.0934 N/A

Powered by AerisWeather